Showing default

KNACKSAT-2, 67683

Orbit data source: Space-Track

KNACKSAT-2, 67683 is a Thai payload satellite in LEO that was delivered to the ISS. Payload-class satellites include a variety of spacecraft equipped with specific instruments for various scientific and technological missions. These include communications satellites like Starlink; space stations such as the ISS; scientific satellites like the Hubble; Earth observation satellites from companies like Planet Labs, Umbra, and HawkEye 360; GPS; miniature CubeSats for education and research; and military/defense satellites.

Loading next visibility...
Identifier
67683, 1998-067XZ
Orbit
LEO
Country
Flag of THTH / THAI
Related business
Manufacturer
Kyutech
Mission
Operational spacecraft
Bus & Motor
CUBESAT 3U, Unknown motor
Mass
3 kg wet, 3 kg dry
Launch date (UTC)
1998-11-20 (28 years ago)
Launch vehicle
H3-24W
Launch site
Tyuratam Missile And Space Complex (TTMTR)
Object type
Payload
Rocket body
Debris
Shape & HBR
BOX, 0.1 m
Radar Cross Section
Medium (>0.1 m² and <1 m²)

Expand to show TLE details & history
Last TLE update: 17 hours ago

TLE from 17 hours ago
0 KNACKSAT-2
1 67683U 98067XZ  26219.71525393  .00037272  00000-0  37887-3 0  9992
2 67683  51.6288  34.3889 0007004  36.7345 323.4129 15.64770564 28331
Epoch: 2026-08-07T17:09Z
TLE epoch observation values (Epoch: 2026-08-07T17:09:57.939Z)
Latitude
-0.00002°
Longitude
-179.3395°
Altitude
370.848 km
Speed
7.691 km/s
True Right ascension
02h 17m 33s
True Declination
0° 00' 00"
Sunlit
Object was in daylight at epoch
Visualization orbit readout
Latitude
Unknown
Longitude
Unknown
Altitude
Unknown
Speed
Unknown
Apparent Right ascension
Unknown
Apparent Declination
Unknown
Sunlit
N/A
Visualization observer readout
Local Sidereal Time
00:17:28
Azimuth
Unknown
Elevation
Unknown
Doppler factor
Unknown
Orbital elements
Apogee altitude
379.141 km
Perigee altitude
369.682 km
Semi-major axis
6,752.549 km
Eccentricity
0.0007
Inclination
51.6288°
RAAN
34.3889°
Arg. of periapsis
36.7345°
True anomaly
323.36503°
Mean anomaly
323.4129°
Eccentric anomaly
323.38897°
Mean motion
3.91148 °/min
Orbital period
92.04 mins
BSTAR
0.00037887
Loading maneuver chart data...
Computing Atmospheric mass density...

Documentation

Showing up to 5 results
|